This is the latest recevied weather packets stored in our database for station/object N2RDT. If no packets are shown the sender has not sent any weather packets the latest 10 day(s).
| Time | Temp. | Humidity | Pressure | Rain* | Wind** | Luminosity | Snow |
|---|---|---|---|---|---|---|---|
| 1777645704 | 13.89° C | 54% | 1016.2 hPa | 0 mm | - | 429 W/m² | - |
| 1777645400 | 13.89° C | 54% | 1016.3 hPa | 0 mm | - | 470 W/m² | - |
| 1777645096 | 13.89° C | 56% | 1016.2 hPa | 0 mm | - | 475 W/m² | - |
| 1777644792 | 13.89° C | 55% | 1016.3 hPa | 0 mm | - | 409 W/m² | - |
| 1777644490 | 13.33° C | 57% | 1016.5 hPa | 0 mm | - | 398 W/m² | - |
| 1777644186 | 13.33° C | 58% | 1016.4 hPa | 0 mm | - | 393 W/m² | - |
| 1777643882 | 12.78° C | 56% | 1016.6 hPa | 0 mm | - | 289 W/m² | - |
| 1777643581 | 12.78° C | 58% | 1016.5 hPa | 0 mm | - | 277 W/m² | - |
| 1777643276 | 12.78° C | 57% | 1016.4 hPa | 0 mm | - | 281 W/m² | - |
| 1777642974 | 12.78° C | 57% | 1016.3 hPa | 0 mm | - | 272 W/m² | - |
| 1777642670 | 12.78° C | 59% | 1016.5 hPa | 0 mm | - | 266 W/m² | - |
| 1777642367 | 12.78° C | 57% | 1016.6 hPa | 0 mm | - | 278 W/m² | - |
| 1777642063 | 12.78° C | 58% | 1016.6 hPa | 0 mm | - | 298 W/m² | - |
| 1777641760 | 12.78° C | 56% | 1016.9 hPa | 0 mm | - | 278 W/m² | - |
| 1777641460 | 13.33° C | 55% | 1016.6 hPa | 0 mm | - | 258 W/m² | - |
| 1777641156 | 13.33° C | 55% | 1016.5 hPa | 0 mm | - | 336 W/m² | - |
| 1777640851 | 12.78° C | 57% | 1016.4 hPa | 0 mm | - | 405 W/m² | - |
| 1777640549 | 12.78° C | 59% | 1016.5 hPa | 0 mm | - | 238 W/m² | - |
| 1777640246 | 12.22° C | 61% | 1016.4 hPa | 0 mm | - | 352 W/m² | - |
| 1777639942 | 11.67° C | 62% | 1016.3 hPa | 0 mm | - | 219 W/m² | - |
| 1777639639 | 11.67° C | 64% | 1016.3 hPa | 0 mm | - | 202 W/m² | - |
| 1777639336 | 11.11° C | 63% | 1016.5 hPa | 0 mm | - | 191 W/m² | - |
| 1777639032 | 11.11° C | 62% | 1016.1 hPa | 0 mm | - | 214 W/m² | - |
| 1777638729 | 11.11° C | 63% | 1016.1 hPa | 0 mm | - | 199 W/m² | - |
| 1777638425 | 11.11° C | 63% | 1016.3 hPa | 0 mm | - | 197 W/m² | - |
* Rain latest hour (hover to see other rain measurements)
** Current wind speed in m/s (hover to see current wind gust speed)